Temp
79 77 76 76 75 75 75 74 73 74 75 76 78 81 82 84 86 87 86 86 85 83 82 82 77 76 72 75 72 73 70 69 77 70 70 70 71 71 70 73 73 74 73
75 73 73 73 72 72 72 71 72 73 73 74 76 77 79 84 86 86 86 86 84 81 80 79 76 76 72 72 70 69 67 68 72 68 66 63 66 67 72 72 72 74 71
70 70 69 70 70 70 69 69 70 71 71 71 73 75 77 78 80 84 84 85 84 82 78 75 76 77 73 71 70 69 68 67 67 71 68 59 60 62 70 70 71 72 71
68 68 68 68 68 68 68 68 68 68 69 69 69 68 68 71 80 84 85 84 83 80 77 76 73 77 73 71 70 70 70 72 64 68 73 74 74 66 67 70 72 71 69
65 66 66 67 68 68 66 65 64 65 65 64 64 64 64 68 73 78 81 82 81 79 73 73 74 74 74 73 72 69 70 71 70 68 66 69 69 71 69 67 68 70 71
65 65 66 66 66 66 63 62 60 60 60 59 58 56 56 59 64 69 74 81 82 79 73 72 70 73 73 71 72 72 71 72 72 72 69 66 64 63 67 66 69 69 70
63 63 63 63 62 61 60 59 57 54 55 54 54 53 53 54 56 62 70 73 77 75 72 69 69 69 71 72 74 72 68 72 72 72 74 73 70 72 70 68 69 69 69
61 61 61 61 60 58 57 55 53 50 51 50 50 49 48 51 55 60 66 72 77 78 75 68 68 70 70 72 72 73 69 69 70 72 73 74 74 74 74 71 67 61 65
60 59 60 59 58 56 54 51 48 47 47 46 46 45 46 48 50 54 61 69 75 76 74 69 67 68 68 69 70 71 71 69 68 70 71 72 72 73 71 71 67 63 55
58 58 58 57 56 54 53 49 46 44 44 44 41 43 44 47 49 52 55 65 75 76 74 72 68 66 67 67 68 69 70 70 68 69 68 68 69 69 70 71 69 68 64
56 56 56 55 54 51 50 47 42 42 40 39 39 41 44 47 50 55 58 67 72 74 72 69 67 66 66 66 66 68 68 67 66 67 67 67 69 68 67 68 68 66 66
55 55 54 53 50 47 45 42 40 38 36 36 37 40 44 45 48 51 62 68 71 73 72 69 67 66 65 65 66 68 69 66 66 66 66 68 68 68 68 67 67 66 67
52 52 51 49 46 44 42 40 38 35 34 33 36 38 41 42 43 46 50 53 67 71 69 67 66 65 64 63 66 69 67 65 66 67 66 67 68 66 66 66 64 66 66
46 47 47 46 43 42 40 38 36 35 34 34 36 35 36 38 40 43 44 47 50 59 61 62 62 63 63 63 64 67 68 65 65 64 65 63 62 62 62 61 63 63 62
43 42 41 40 41 39 37 37 35 33 33 34 34 32 35 36 38 39 39 41 42 44 46 53 53 57 59 58 62 65 65 61 58 56 54 47 43 39 40 49 53 56 57
39 38 38 36 35 34 35 35 35 32 32 32 32 33 34 33 34 36 36 36 37 37 38 38 40 41 45 43 48 57 59 57 53 48 46 43 41 38 37 37 36 36 42
34 34 32 32 32 32 33 33 34 34 32 32 32 33 33 32 32 34 33 32 33 35 35 36 36 35 38 40 43 43 45 43 42 45 45 43 42 42 43 37 35 34 34
31 31 31 32 32 32 33 33 33 33 33 32 32 32 32 32 32 31 30 31 31 30 30 31 33 34 33 35 36 36 37 35 35 36 38 37 37 37 39 36 33 32 32
30 30 31 31 32 32 32 32 32 32 33 31 32 32 32 32 32 30 30 29 29 29 29 29 30 31 32 34 34 33 33 32 32 33 34 34 33 35 37 34 32 30 30
31 30 30 31 31 31 33 32 31 31 30 31 31 32 33 32 32 32 32 31 30 29 29 28 29 30 30 32 33 32 32 30 30 30 31 33 32 33 33 31 29 26 27
31 33 32 31 31 32 33 31 31 30 31 32 32 32 32 32 32 32 32 32 32 32 31 29 29 28 29 30 31 31 29 28 28 28 28 30 32 32 32 31 29 27 29
33 37 36 33 33 33 32 30 30 32 33 32 32 31 32 32 32 32 32 32 32 32 31 30 29 30 30 31 30 30 30 29 26 25 27 29 31 31 31 30 30 30 29
36 39 38 37 37 37 37 32 32 34 34 34 33 32 31 31 32 31 31 32 32 31 30 29 28 28 29 30 31 31 30 30 28 28 29 30 31 31 30 30 30 30 29
37 39 38 36 35 37 37 38 39 38 36 35 35 35 34 30 30 33 32 30 28 30 29 27 27 27 27 27 28 29 30 30 31 31 32 30 30 30 30 31 31 31 31
37 38 36 35 34 36 36 37 38 40 38 37 36 37 37 36 32 28 28 30 28 28 27 28 26 25 24 25 28 28 28 29 30 31 32 31 31 30 31 31 31 32 32
35 36 36 35 33 33 32 33 35 35 34 34 34 34 35 35 35 35 30 28 28 28 28 28 28 28 28 29 30 30 31 32 32 31 28 27 27 27 29 29 29 30 30
MSLP
1003.47 1005.14 1006.36 1006.64 1006.84 1006.90 1006.96 1007.12 1007.21 1007.13 1006.90 1006.45 1005.72 1004.98 1004.27 1004.11 1004.02 1004.34 1004.33 1004.62 1005.11 1005.73 1006.17 1006.66 1007.73 1008.16 1008.72 1008.77 1009.16 1010.11 1010.85 1011.07 1010.82 1011.58 1011.98 1012.26 1012.50 1012.61 1012.90 1013.15 1013.24 1013.79 1014.14
1004.46 1005.74 1006.46 1006.84 1007.30 1007.41 1007.48 1007.46 1007.33 1007.32 1007.20 1006.89 1006.33 1005.69 1004.83 1003.76 1003.45 1003.71 1003.73 1003.96 1004.39 1005.17 1005.60 1006.01 1006.71 1007.35 1007.83 1008.46 1008.75 1009.24 1010.21 1010.75 1010.80 1011.10 1011.80 1011.92 1012.17 1012.04 1012.11 1012.55 1012.80 1012.91 1013.32
1005.43 1006.39 1006.92 1007.21 1007.62 1007.77 1008.10 1008.02 1007.71 1007.73 1007.56 1007.42 1006.82 1005.94 1005.13 1004.45 1003.58 1002.83 1003.13 1003.18 1003.49 1004.15 1004.90 1005.66 1006.14 1006.55 1007.20 1007.58 1008.12 1008.51 1009.11 1009.90 1010.50 1010.47 1010.85 1011.34 1011.07 1011.60 1011.48 1011.69 1012.21 1012.46 1012.84
1006.53 1006.90 1007.23 1007.54 1007.84 1008.02 1008.50 1008.54 1008.43 1008.26 1007.90 1007.79 1007.18 1006.62 1006.02 1004.72 1003.24 1002.25 1001.99 1002.41 1002.89 1003.41 1004.11 1004.81 1005.32 1005.53 1006.23 1006.69 1007.22 1008.08 1008.42 1009.03 1009.74 1010.06 1009.84 1009.78 1009.83 1010.33 1010.15 1010.83 1011.15 1011.67 1012.17
1007.08 1007.30 1007.52 1007.89 1008.00 1008.24 1008.63 1008.89 1009.00 1008.70 1008.47 1008.36 1007.99 1007.49 1006.61 1005.62 1004.29 1002.85 1001.60 1001.14 1001.85 1002.67 1003.57 1004.10 1004.41 1004.77 1005.23 1005.65 1006.15 1007.20 1007.60 1008.05 1008.73 1009.05 1009.45 1009.64 1009.97 1010.05 1009.91 1009.76 1010.53 1011.14 1011.36
1007.38 1007.74 1008.07 1008.31 1008.38 1008.74 1009.06 1009.24 1009.23 1009.08 1009.05 1008.87 1008.60 1008.22 1007.55 1006.69 1005.30 1003.84 1002.10 1000.61 1000.46 1001.36 1002.44 1003.29 1003.97 1004.20 1004.34 1004.70 1005.19 1005.80 1006.40 1006.53 1007.16 1007.90 1008.63 1008.96 1009.18 1009.59 1009.69 1009.76 1009.79 1009.91 1010.27
1007.99 1008.28 1008.48 1008.78 1008.94 1009.18 1009.38 1009.46 1009.56 1009.53 1009.39 1009.13 1008.75 1008.38 1007.71 1006.86 1005.76 1004.40 1002.73 1001.25 1000.00 1000.44 1001.30 1002.34 1003.14 1003.41 1003.61 1003.83 1004.29 1004.79 1005.82 1006.70 1006.56 1006.35 1007.15 1007.91 1008.23 1008.59 1009.04 1009.26 1009.26 1009.35 1009.87
1008.53 1008.77 1009.12 1009.41 1009.62 1009.89 1009.94 1010.11 1010.16 1009.97 1009.70 1009.27 1008.84 1008.46 1007.81 1006.73 1005.59 1004.32 1002.70 1000.95 999.70 999.37 1000.39 1001.10 1002.08 1002.54 1002.86 1003.08 1003.66 1004.14 1004.91 1004.75 1006.00 1004.80 1006.22 1006.75 1007.33 1007.50 1007.96 1008.38 1009.13 1009.61 1009.95
1008.87 1009.27 1009.66 1009.93 1010.16 1010.34 1010.55 1010.87 1010.88 1010.61 1010.09 1009.48 1008.75 1008.12 1007.12 1006.15 1005.04 1003.88 1002.58 1000.69 999.04 998.72 999.23 1000.07 1001.01 1001.74 1002.12 1002.57 1003.04 1003.46 1003.64 1004.45 1003.29 1004.47 1006.08 1006.60 1006.82 1007.30 1007.89 1008.52 1009.03 1009.42 1009.81
1009.61 1009.89 1010.05 1010.31 1010.61 1010.85 1010.95 1011.26 1011.26 1010.77 1010.12 1009.37 1008.58 1007.38 1006.11 1005.20 1003.95 1002.82 1001.23 999.64 997.77 997.68 998.19 998.95 999.94 1000.93 1001.30 1001.96 1002.56 1002.97 1003.20 1003.50 1004.01 1004.99 1006.14 1006.37 1006.77 1007.37 1007.64 1007.95 1008.33 1008.77 1009.09
1010.47 1010.85 1011.03 1011.34 1011.41 1011.66 1011.68 1011.74 1011.49 1010.95 1010.17 1009.19 1007.97 1006.70 1005.48 1004.18 1002.52 1000.46 998.74 997.69 996.78 996.74 997.39 998.17 999.06 1000.06 1000.64 1001.40 1002.03 1002.28 1002.83 1003.37 1004.12 1004.70 1005.42 1005.89 1006.24 1006.70 1007.33 1007.89 1008.08 1008.27 1008.48
1011.18 1011.38 1011.57 1011.89 1012.17 1012.49 1012.71 1012.48 1012.07 1011.59 1010.53 1009.31 1008.09 1006.58 1005.30 1003.67 1001.46 999.39 997.01 995.85 996.18 996.33 996.68 997.77 998.49 999.27 1000.03 1000.76 1001.41 1001.49 1002.13 1002.93 1003.77 1004.46 1005.18 1005.54 1005.76 1006.35 1006.87 1007.46 1007.67 1007.89 1008.13
1011.91 1012.11 1012.31 1012.64 1012.97 1013.29 1013.31 1013.07 1012.63 1011.89 1010.61 1009.00 1008.18 1007.09 1005.53 1003.36 1001.30 1000.05 998.25 997.33 996.49 996.41 996.33 997.04 997.90 998.83 999.53 1000.13 1000.54 1000.96 1001.59 1002.13 1002.96 1003.37 1004.95 1005.40 1005.69 1006.50 1007.10 1007.50 1007.58 1007.62 1007.87
1013.24 1013.64 1013.62 1013.70 1013.91 1014.05 1013.84 1013.55 1013.02 1012.22 1011.36 1009.94 1008.83 1007.49 1005.27 1004.18 1003.00 1001.77 1000.54 999.01 998.29 997.61 997.37 997.51 998.18 998.61 999.31 999.98 1000.41 1000.69 1001.56 1001.57 1002.33 1003.61 1004.90 1005.49 1006.21 1007.01 1007.40 1007.82 1007.86 1007.88 1007.84
1014.57 1014.92 1015.07 1014.89 1015.09 1014.77 1014.32 1013.61 1013.21 1012.67 1011.74 1010.75 1009.37 1007.55 1006.25 1005.09 1004.05 1003.38 1001.87 1001.24 1000.29 1000.06 999.66 998.85 998.66 998.72 999.18 999.83 1000.45 1000.49 1001.42 1002.17 1003.18 1004.60 1005.84 1007.12 1008.05 1008.68 1009.01 1008.90 1008.99 1008.90 1008.41
1015.90 1016.26 1016.29 1016.45 1016.29 1015.56 1015.00 1014.38 1013.72 1013.08 1012.28 1011.26 1010.20 1009.17 1007.58 1006.31 1005.47 1004.26 1003.33 1003.01 1002.42 1002.19 1002.01 1001.50 1000.90 1001.05 1000.90 1000.82 1000.74 1000.89 1001.87 1003.12 1004.31 1005.53 1007.19 1008.23 1008.93 1009.32 1009.73 1010.02 1010.48 1010.40 1009.80
1017.28 1017.53 1017.65 1017.51 1017.10 1016.67 1016.18 1015.39 1014.64 1013.89 1012.93 1011.95 1010.89 1009.75 1008.78 1007.36 1006.79 1006.08 1004.99 1005.34 1004.87 1004.39 1004.19 1003.94 1003.57 1003.43 1004.11 1002.36 1001.46 1002.26 1003.43 1004.56 1004.69 1007.29 1008.20 1008.74 1009.40 1009.47 1009.90 1010.55 1010.95 1011.08 1010.36
1018.63 1018.60 1018.67 1018.37 1018.03 1017.66 1016.94 1016.28 1015.41 1014.50 1013.56 1012.54 1011.90 1011.07 1010.28 1009.51 1008.72 1008.06 1007.10 1007.12 1006.72 1006.24 1006.65 1006.50 1006.22 1005.38 1006.47 1004.65 1004.14 1003.83 1005.17 1006.21 1007.18 1008.59 1009.19 1009.73 1009.88 1009.98 1010.20 1011.07 1011.25 1011.36 1011.14
1019.54 1019.65 1019.56 1019.17 1018.87 1018.24 1017.62 1016.92 1016.07 1015.29 1014.44 1013.79 1013.08 1012.35 1011.61 1010.83 1010.24 1009.81 1009.89 1009.39 1008.39 1008.34 1008.76 1008.68 1008.58 1007.65 1006.71 1007.32 1006.37 1006.61 1007.34 1008.22 1009.27 1009.74 1010.24 1010.11 1010.25 1010.48 1010.87 1011.47 1011.59 1011.84 1012.06
1020.12 1020.24 1020.05 1019.86 1019.25 1018.69 1018.12 1017.51 1016.92 1016.31 1015.70 1015.13 1014.52 1013.76 1013.00 1012.31 1011.85 1011.65 1011.20 1011.01 1010.57 1010.79 1010.78 1010.57 1010.49 1009.27 1009.40 1008.54 1007.86 1008.27 1009.48 1009.98 1010.22 1010.91 1011.34 1010.25 1010.95 1011.43 1011.91 1012.08 1012.54 1012.63 1013.27
1020.44 1020.37 1020.38 1020.12 1019.73 1019.24 1018.67 1018.09 1017.80 1017.36 1017.16 1016.47 1015.70 1014.97 1014.36 1013.86 1013.45 1013.02 1012.49 1012.29 1012.18 1012.05 1011.69 1011.35 1011.44 1011.09 1011.13 1011.15 1011.23 1010.99 1011.42 1012.25 1012.09 1010.86 1011.69 1012.42 1012.09 1012.83 1012.91 1013.07 1013.19 1013.61 1013.95
1020.68 1020.27 1020.09 1020.12 1019.92 1019.46 1019.03 1018.86 1018.64 1018.58 1018.04 1017.54 1016.94 1016.36 1015.84 1015.36 1014.91 1014.35 1014.06 1013.82 1013.46 1013.27 1013.16 1013.09 1013.06 1013.00 1013.39 1013.50 1013.28 1013.14 1013.04 1013.68 1013.48 1012.95 1013.11 1013.55 1014.10 1014.04 1014.17 1014.00 1014.08 1014.24 1014.35
1020.70 1020.29 1020.15 1020.14 1020.06 1019.88 1019.47 1019.11 1019.27 1018.97 1018.56 1017.99 1017.58 1017.49 1017.32 1016.87 1016.35 1015.80 1015.46 1015.19 1015.11 1015.02 1014.94 1014.86 1015.01 1015.25 1015.34 1015.21 1014.84 1014.71 1014.63 1014.10 1014.26 1014.92 1015.25 1015.27 1014.93 1014.90 1015.06 1015.15 1014.96 1014.99 1015.09
1020.96 1020.69 1020.58 1020.55 1020.55 1020.50 1020.28 1019.84 1019.28 1018.92 1018.66 1018.35 1018.11 1018.02 1017.92 1018.31 1018.19 1017.50 1017.41 1017.21 1017.03 1016.69 1016.72 1016.70 1016.60 1016.81 1016.68 1016.51 1016.22 1016.07 1015.79 1015.80 1015.72 1016.15 1016.20 1016.00 1015.75 1015.78 1015.94 1015.99 1016.04 1016.20 1016.14
1021.51 1021.31 1021.24 1021.34 1021.49 1021.50 1021.41 1021.17 1020.77 1020.03 1019.62 1019.45 1019.25 1018.93 1018.81 1018.81 1019.08 1019.60 1019.53 1019.14 1019.42 1019.16 1018.71 1018.49 1018.64 1018.57 1018.51 1018.49 1017.94 1017.45 1017.15 1017.15 1016.86 1016.65 1016.68 1016.70 1016.37 1016.41 1016.63 1016.96 1017.19 1017.14 1017.04
1022.25 1021.94 1021.89 1022.17 1022.43 1022.51 1022.45 1022.33 1022.00 1021.62 1020.96 1020.56 1020.36 1020.26 1020.01 1019.86 1019.75 1019.66 1020.23 1020.98 1020.82 1020.69 1020.50 1020.22 1020.01 1020.06 1019.93 1019.47 1019.03 1018.73 1018.29 1018.07 1017.58 1017.35 1017.66 1017.86 1017.78 1017.81 1017.89 1018.11 1018.32 1018.19 1017.96
Wind_Speed
6 4 2 4 7 8 9 10 9 9 8 8 8 10 11 11 11 12 15 14 13 15 14 11 12 13 12 14 10 8 9 7 7 4 5 5 5 7 5 8 6 8 8
5 4 4 7 8 9 10 11 11 11 9 8 9 10 12 10 11 11 13 15 14 15 14 14 14 16 12 16 13 13 7 7 8 6 3 4 5 6 9 8 8 10 6
2 3 5 7 9 10 11 12 13 14 12 13 10 10 11 12 12 12 12 13 16 16 16 16 15 15 13 13 13 13 14 9 7 11 6 3 6 2 7 11 8 10 8
2 5 7 9 10 10 10 12 13 14 13 14 13 14 12 15 13 12 13 13 16 16 16 17 17 16 13 13 13 12 12 12 9 9 10 10 5 6 5 6 9 8 9
5 8 10 12 12 12 12 12 13 14 14 15 14 13 15 13 14 14 18 15 14 18 16 16 16 17 14 15 15 14 14 12 10 11 7 10 8 8 7 6 5 6 6
8 10 11 12 12 12 13 13 14 15 15 15 15 16 18 18 15 17 15 12 12 11 16 16 16 16 15 15 14 17 19 16 13 10 10 8 7 7 8 8 10 8 7
9 10 12 14 14 16 16 15 16 17 17 17 17 17 17 18 21 20 16 18 11 9 14 16 16 14 16 16 16 16 13 13 13 14 11 10 9 9 10 9 10 8 3
10 11 13 13 14 15 16 17 17 19 19 18 18 17 17 12 14 18 17 15 13 13 16 15 15 16 17 16 15 14 13 18 15 15 12 9 9 8 8 7 6 5 5
12 13 13 13 14 15 16 16 17 18 18 19 18 16 15 17 17 21 21 17 19 12 15 15 16 15 14 15 15 13 15 13 14 9 10 9 7 7 7 7 5 5 5
11 13 14 15 15 16 16 16 17 18 19 19 15 14 17 18 19 18 22 24 21 20 17 17 16 13 14 14 16 13 13 12 8 7 12 10 8 9 8 9 7 9 9
10 11 12 14 14 16 17 17 17 19 19 17 17 17 17 18 17 20 22 23 21 20 17 15 15 15 14 14 15 15 13 14 10 9 11 12 13 8 8 8 9 8 9
11 11 13 14 15 16 16 16 16 17 16 16 16 18 17 16 14 14 9 14 18 17 18 15 14 15 15 16 17 20 16 15 13 12 10 12 7 10 10 9 11 9 10
12 13 13 14 16 15 16 16 16 15 16 16 16 16 15 15 16 16 14 19 11 14 13 9 11 13 14 16 18 18 17 17 14 9 10 10 10 11 9 11 10 9 9
11 12 13 14 15 15 15 16 17 15 16 16 16 16 15 16 13 14 13 12 15 4 5 7 9 11 12 13 14 15 14 12 10 9 6 3 2 5 2 4 6 6 7
10 12 14 15 16 16 16 17 15 15 15 15 16 18 16 14 15 14 14 15 15 15 15 9 6 5 6 5 13 14 12 11 11 11 9 11 12 16 12 3 7 9 8
10 12 14 15 15 17 17 16 16 15 14 14 15 15 16 13 13 15 18 18 18 17 16 16 15 14 6 6 8 10 11 12 12 10 11 9 11 12 13 14 16 10 5
10 12 13 13 14 15 15 15 15 15 14 15 16 17 17 19 18 15 19 17 18 19 19 17 16 18 14 17 22 20 13 13 15 9 8 8 6 6 6 10 10 13 16
9 11 10 12 13 13 14 13 14 15 16 16 16 16 16 17 18 18 18 18 14 19 18 18 16 13 14 24 23 25 16 15 16 11 10 9 9 9 6 7 8 9 13
8 8 9 11 11 12 12 13 14 15 16 17 17 16 16 17 17 19 17 15 17 18 17 17 18 17 20 24 26 18 15 16 15 14 12 10 11 15 11 8 9 10 9
7 8 10 10 12 13 13 13 14 16 17 16 15 15 16 16 18 16 15 14 14 15 13 17 17 26 19 33 31 19 9 11 10 12 12 26 18 21 18 11 8 10 9
7 7 8 10 11 11 12 14 14 16 14 14 15 16 17 16 16 15 14 14 14 14 15 17 17 21 23 24 31 28 12 9 8 12 12 11 25 23 23 19 12 10 7
7 8 9 9 9 10 11 13 15 12 12 13 15 17 16 14 14 16 14 15 14 15 16 15 14 13 15 26 29 29 27 18 10 11 10 14 25 25 23 16 21 18 10
7 9 10 11 13 14 13 11 7 9 10 12 13 14 16 16 15 17 17 13 14 13 12 12 12 12 11 11 21 23 23 24 14 10 16 20 19 19 17 23 18 11 8
8 9 11 13 14 14 15 15 13 10 10 12 12 11 12 15 16 12 13 14 13 12 12 12 11 11 11 12 11 10 10 11 9 7 8 9 11 15 12 10 11 9 8
9 10 11 12 14 14 15 15 15 14 13 13 13 13 12 13 12 14 13 13 15 16 11 10 11 10 11 12 16 14 9 7 8 7 8 8 8 9 8 8 9 7 8
8 10 12 12 12 13 15 15 15 15 13 12 11 11 10 10 10 10 10 20 21 23 25 25 18 10 17 18 19 19 17 14 11 7 8 8 8 8 8 8 8 9 9
Wind_Direction
92 114 17 10 360 3 350 352 345 340 331 306 288 269 241 245 229 229 234 220 212 213 215 213 201 201 203 204 193 200 193 228 212 190 232 252 245 223 220 230 225 212 205
173 106 27 16 9 358 358 342 336 335 330 314 314 301 295 280 239 245 244 222 213 210 211 208 206 202 197 205 190 184 183 197 195 187 198 228 234 236 218 220 224 220 183
36 39 12 14 0 357 354 341 336 331 325 318 300 291 270 267 269 227 234 234 218 212 206 210 210 203 202 201 195 191 187 192 197 187 181 178 234 183 217 217 216 220 221
47 16 1 356 351 355 347 340 336 327 320 321 308 303 294 288 273 254 233 225 222 222 219 213 208 211 198 196 189 197 197 201 195 205 216 244 269 208 195 212 222 219 212
11 2 360 351 340 347 345 338 331 326 326 318 309 300 289 285 285 275 278 225 218 213 218 218 215 211 199 197 187 192 193 196 198 207 199 219 215 234 244 251 178 220 218
3 357 354 346 345 346 340 335 331 329 324 318 309 297 285 281 278 278 273 257 217 208 214 217 215 218 205 197 195 193 196 196 199 190 200 205 193 207 224 231 243 241 196
4 348 350 345 341 341 336 335 332 325 323 316 307 297 288 282 275 269 268 265 253 216 210 206 216 212 208 198 197 201 183 205 213 188 203 198 207 211 211 232 240 239 195
2 354 352 340 339 335 332 331 330 323 318 313 308 298 289 277 271 265 261 262 249 226 211 201 210 212 206 202 199 201 183 195 214 193 207 208 213 218 226 224 221 239 254
358 354 347 348 340 335 333 332 324 318 316 314 309 297 289 280 269 264 264 264 251 232 206 191 200 211 205 202 194 203 203 200 203 187 205 223 215 223 216 226 217 213 213
351 347 345 346 343 341 338 333 329 325 320 317 312 300 301 286 270 258 249 249 243 222 203 195 189 196 194 196 198 198 200 194 192 189 198 205 200 215 216 226 219 220 228
347 344 346 348 348 346 341 337 336 330 328 321 320 316 303 293 288 276 233 239 236 216 204 188 185 193 189 184 199 189 188 180 181 186 202 206 206 206 216 218 236 241 238
351 347 352 354 355 352 341 342 341 331 327 325 320 321 310 307 312 319 319 244 233 219 210 185 192 193 196 188 199 190 178 174 182 192 198 210 199 216 223 228 232 235 240
358 356 353 359 0 347 346 346 345 337 333 334 331 318 320 333 346 338 345 350 256 230 219 194 187 190 188 190 199 187 179 170 173 164 202 213 205 221 224 228 234 246 245
357 355 354 359 359 350 351 350 348 350 342 339 336 329 345 345 350 354 354 6 8 321 166 168 191 186 181 186 190 182 187 155 153 157 201 170 206 224 247 287 281 283 267
2 5 355 1 350 355 355 357 355 350 348 348 349 352 349 352 9 9 20 21 28 21 16 43 48 104 142 153 190 169 161 134 114 100 88 68 77 71 58 350 324 297 266
10 6 6 358 351 358 357 355 356 354 352 360 3 358 4 7 14 25 29 31 33 32 30 28 35 21 20 351 239 158 134 126 107 97 102 111 104 91 80 73 58 42 311
17 11 4 360 0 357 355 358 354 0 4 10 12 11 12 22 19 20 37 36 37 38 34 32 34 41 5 22 94 89 84 83 80 90 100 96 80 80 109 89 67 48 43
18 17 3 2 3 357 3 4 6 12 13 18 20 17 22 30 30 30 33 31 37 48 40 30 26 50 28 45 47 81 83 81 75 69 78 79 70 56 85 97 81 58 48
36 22 9 8 1 5 10 14 16 17 20 20 18 20 22 31 36 39 36 34 40 43 45 39 29 34 41 32 53 56 67 72 75 72 66 75 68 59 74 86 77 64 48
48 36 22 16 17 12 14 22 23 21 20 16 19 22 25 30 36 36 38 41 48 49 50 51 41 43 48 41 48 52 55 66 66 68 70 63 70 68 65 68 68 64 32
43 57 44 27 20 16 23 28 25 25 18 20 25 28 29 32 31 35 35 39 44 48 47 48 45 44 44 44 48 52 52 56 67 57 58 61 65 69 71 71 64 59 46
50 58 56 49 32 29 28 34 29 17 24 32 34 32 29 34 30 34 36 35 36 41 42 43 44 39 43 49 48 52 57 52 59 58 54 61 64 65 64 65 67 67 62
55 56 55 54 46 37 35 36 35 27 28 35 41 45 38 30 35 36 33 33 37 36 38 40 39 36 32 29 40 49 53 53 53 50 58 58 54 56 54 51 49 53 58
59 59 58 54 47 41 37 31 25 40 34 38 41 41 50 50 34 34 41 36 30 31 41 34 38 35 31 26 22 27 32 36 50 46 52 55 62 60 51 46 46 46 47
63 61 59 53 48 42 39 34 27 22 40 42 36 38 39 40 66 56 37 42 41 39 33 43 42 33 36 32 37 36 32 27 30 43 43 38 42 49 49 51 44 40 51
65 64 59 57 52 44 36 31 28 32 29 38 37 31 37 36 35 38 77 59 63 51 48 45 42 43 41 36 39 42 40 37 38 59 54 47 41 41 40 42 44 40 39